| time (UTC) | temp C | wind direction | speed KPH | gust KPH | rain 1hr cm | rain 24hr cm | rain mn cm | humidity % | barometer mb |
| 20260904220024 | 22 | 154 | 0.0 | 0.0 | 0.00 | 0.64 | 0.03 | 79 | 1012.2 |
| 20260904214518 | 23 | 154 | 0.0 | 0.0 | 0.00 | 0.64 | 0.03 | 72 | 1012.1 |
| 20260904213026 | 23 | 86 | 0.0 | 0.0 | 0.00 | 0.64 | 0.03 | 72 | 1012.2 |
| 20260904211519 | 24 | 83 | 0.0 | 0.0 | 0.00 | 0.64 | 0.03 | 70 | 1012.1 |
| 20260904210025 | 25 | 156 | 0.0 | 0.0 | 0.00 | 0.64 | 0.03 | 67 | 1011.9 |
| 20260904204516 | 24 | 250 | 0.0 | 0.0 | 0.00 | 0.64 | 0.03 | 73 | 1011.9 |
| 20260904203016 | 25 | 332 | 0.0 | 0.0 | 0.00 | 0.64 | 0.03 | 67 | 1011.9 |
| 20260904201515 | 24 | 344 | 0.0 | 0.0 | 0.00 | 0.64 | 0.03 | 64 | 1011.9 |
| 20260904200018 | 25 | 79 | 0.0 | 0.0 | 0.00 | 0.64 | 0.03 | 63 | 1011.9 |
| 20260904194514 | 25 | 243 | 0.0 | 0.0 | 0.00 | 0.64 | 0.03 | 69 | 1011.9 |
| 20260904193013 | 25 | 90 | 0.0 | 0.0 | 0.00 | 0.64 | 0.03 | 66 | 1011.8 |
| 20260904191512 | 26 | 114 | 0.0 | 0.0 | 0.00 | 0.64 | 0.03 | 67 | 1011.8 |
| 20260904190013 | 27 | 85 | 0.0 | 0.0 | 0.00 | 0.64 | 0.03 | 56 | 1011.8 |
| 20260904184510 | 27 | 342 | 0.0 | 1.6 | 0.00 | 0.64 | 0.03 | 55 | 1011.9 |
| 20260904183009 | 27 | 305 | 0.0 | 0.0 | 0.00 | 0.64 | 0.03 | 59 | 1011.9 |
| 20260904181507 | 27 | 269 | 0.0 | 0.0 | 0.00 | 0.64 | 0.03 | 57 | 1011.8 |
| 20260904180009 | 27 | 2 | 0.0 | 0.0 | 0.00 | 0.64 | 0.03 | 58 | 1011.9 |
| 20260904174504 | 27 | 34 | 0.0 | 0.0 | 0.00 | 0.64 | 0.03 | 61 | 1012.0 |
| 20260904173003 | 27 | 346 | 0.0 | 1.6 | 0.00 | 0.64 | 0.03 | 63 | 1012.0 |
| 20260904171501 | 27 | 86 | 0.0 | 0.0 | 0.00 | 0.64 | 0.03 | 61 | 1012.1 |
| 20260904170100 | 27 | 324 | 0.0 | 0.0 | 0.00 | 0.64 | 0.03 | 65 | 1012.3 |
| 20260904164559 | 27 | 239 | 0.0 | 0.0 | 0.00 | 0.64 | 0.03 | 68 | 1012.4 |
| 20260904163059 | 26 | 287 | 0.0 | 0.0 | 0.00 | 0.64 | 0.03 | 64 | 1012.4 |
| 20260904161559 | 26 | 354 | 0.0 | 0.0 | 0.00 | 0.64 | 0.03 | 68 | 1012.5 |
| 20260904160053 | 26 | 38 | 0.0 | 0.0 | 0.00 | 0.64 | 0.03 | 72 | 1012.7 |
| 20260904154550 | 26 | 33 | 0.0 | 0.0 | 0.00 | 0.64 | 0.03 | 74 | 1012.8 |
| 20260904153058 | 26 | 54 | 0.0 | 0.0 | 0.00 | 0.64 | 0.03 | 75 | 1012.9 |
| 20260904151545 | 25 | 3 | 0.0 | 0.0 | 0.00 | 0.64 | 0.03 | 79 | 1013.0 |
| 20260904150042 | 24 | 349 | 0.0 | 0.0 | 0.00 | 0.64 | 0.03 | 80 | 1013.1 |
| 20260904144539 | 24 | 85 | 0.0 | 0.0 | 0.00 | 0.64 | 0.03 | 80 | 1013.1 |
| 20260904143037 | 23 | 10 | 0.0 | 0.0 | 0.00 | 0.64 | 0.03 | 83 | 1013.4 |
| 20260904141539 | 23 | 23 | 0.0 | 0.0 | 0.00 | 0.64 | 0.03 | 87 | 1013.4 |
| 20260904140035 | 22 | 352 | 0.0 | 0.0 | 0.00 | 0.64 | 0.03 | 88 | 1013.6 |
| 20260904134533 | 22 | 58 | 0.0 | 0.0 | 0.00 | 0.64 | 0.03 | 89 | 1013.5 |
| 20260904133023 | 21 | 330 | 0.0 | 0.0 | 0.00 | 0.64 | 0.03 | 92 | 1013.5 |
| 20260904131520 | 21 | 330 | 0.0 | 0.0 | 0.00 | 0.64 | 0.03 | 93 | 1013.7 |
| 20260904130017 | 20 | 3 | 0.0 | 0.0 | 0.00 | 0.66 | 0.03 | 94 | 1013.7 |
| 20260904124515 | 20 | 44 | 0.0 | 0.0 | 0.00 | 0.66 | 0.03 | 94 | 1013.6 |
| 20260904123012 | 18 | 43 | 0.0 | 0.0 | 0.00 | 0.66 | 0.03 | 95 | 1013.7 |
| 20260904121511 | 18 | 44 | 0.0 | 0.0 | 0.00 | 0.66 | 0.03 | 95 | 1013.9 |
| 20260904120009 | 18 | 61 | 0.0 | 0.0 | 0.00 | 0.71 | 0.03 | 95 | 1013.7 |
| 20260904114507 | 18 | 328 | 0.0 | 0.0 | 0.00 | 0.71 | 0.03 | 95 | 1013.8 |
| 20260904113009 | 18 | 42 | 0.0 | 0.0 | 0.00 | 0.71 | 0.03 | 95 | 1013.7 |
| 20260904111506 | 17 | 61 | 0.0 | 0.0 | 0.00 | 0.71 | 0.03 | 95 | 1013.5 |
| 20260904110005 | 17 | 61 | 0.0 | 0.0 | 0.00 | 0.79 | 0.03 | 95 | 1013.4 |
| 20260904104505 | 17 | 61 | 0.0 | 0.0 | 0.03 | 0.79 | 0.03 | 95 | 1013.5 |
| 20260904103003 | 17 | 61 | 0.0 | 0.0 | 0.03 | 0.79 | 0.03 | 95 | 1013.5 |
| 20260904101503 | 17 | 61 | 0.0 | 0.0 | 0.03 | 0.79 | 0.03 | 95 | 1013.4 |
| 20260904100002 | 17 | 61 | 0.0 | 0.0 | 0.03 | 0.97 | 0.03 | 95 | 1013.5 |
| 20260904094501 | 17 | 61 | 0.0 | 0.0 | 0.00 | 0.94 | 0.00 | 95 | 1013.4 |
| 20260904093001 | 17 | 61 | 0.0 | 0.0 | 0.00 | 0.94 | 0.00 | 95 | 1013.5 |
| 20260904091610 | 17 | 61 | 0.0 | 0.0 | 0.00 | 0.94 | 0.00 | 95 | 1013.5 |
| 20260904090100 | 17 | 62 | 0.0 | 0.0 | 0.00 | 0.94 | 0.00 | 95 | 1013.5 |
| 20260904084603 | 17 | 61 | 0.0 | 0.0 | 0.00 | 1.09 | 0.00 | 95 | 1013.5 |
| 20260904083110 | 17 | 62 | 0.0 | 0.0 | 0.00 | 1.09 | 0.00 | 95 | 1013.3 |
| 20260904081558 | 17 | 62 | 0.0 | 0.0 | 0.00 | 1.09 | 0.00 | 95 | 1013.5 |
| 20260904080056 | 17 | 62 | 0.0 | 0.0 | 0.00 | 1.09 | 0.00 | 95 | 1013.5 |
| 20260904074606 | 17 | 61 | 0.0 | 0.0 | 0.00 | 1.09 | 0.00 | 95 | 1013.7 |
| 20260904073053 | 17 | 62 | 0.0 | 0.0 | 0.00 | 1.09 | 0.00 | 95 | 1013.7 |
| 20260904071553 | 17 | 62 | 0.0 | 0.0 | 0.00 | 1.09 | 0.00 | 95 | 1013.9 |
| 20260904070105 | 17 | 62 | 0.0 | 0.0 | 0.00 | 1.09 | 0.00 | 95 | 1013.8 |
| 20260904064550 | 17 | 62 | 0.0 | 0.0 | 0.00 | 1.09 | 0.00 | 95 | 1014.1 |
| 20260904063055 | 17 | 62 | 0.0 | 0.0 | 0.00 | 1.09 | 0.00 | 94 | 1014.0 |
| 20260904061548 | 17 | 61 | 0.0 | 0.0 | 0.00 | 1.09 | 0.00 | 94 | 1014.3 |
| 20260904060047 | 17 | 62 | 0.0 | 0.0 | 0.00 | 1.09 | 0.00 | 94 | 1014.6 |
| 20260904054545 | 17 | 62 | 0.0 | 0.0 | 0.00 | 1.09 | 0.00 | 94 | 1014.7 |
| 20260904053044 | 17 | 62 | 0.0 | 0.0 | 0.00 | 1.09 | 0.00 | 94 | 1014.9 |
| 20260904051543 | 17 | 62 | 0.0 | 0.0 | 0.00 | 1.09 | 0.00 | 94 | 1015.0 |
| 20260904050042 | 17 | 61 | 0.0 | 0.0 | 0.00 | 1.09 | 0.00 | 94 | 1015.0 |
| 20260904044541 | 17 | 61 | 0.0 | 0.0 | 0.00 | 1.09 | 0.00 | 94 | 1015.0 |
| 20260904043038 | 17 | 62 | 0.0 | 0.0 | 0.00 | 1.09 | 0.00 | 94 | 1015.2 |
| 20260904041537 | 17 | 62 | 0.0 | 0.0 | 0.00 | 1.09 | 0.00 | 94 | 1015.5 |
| 20260904040035 | 17 | 62 | 0.0 | 0.0 | 0.00 | 1.09 | 1.09 | 94 | 1015.4 |
| 20260904034535 | 17 | 62 | 0.0 | 0.0 | 0.00 | 1.09 | 1.09 | 94 | 1015.5 |
| 20260904033036 | 17 | 62 | 0.0 | 0.0 | 0.00 | 1.09 | 1.09 | 94 | 1015.5 |
| 20260904031535 | 17 | 62 | 0.0 | 0.0 | 0.61 | 1.09 | 1.09 | 94 | 1015.8 |
| 20260904030036 | 17 | 62 | 0.0 | 0.0 | 0.61 | 1.09 | 1.09 | 94 | 1015.6 |
| 20260904024533 | 17 | 62 | 0.0 | 0.0 | 0.61 | 1.09 | 1.09 | 94 | 1015.7 |
| 20260904023037 | 17 | 60 | 0.0 | 0.0 | 0.61 | 1.09 | 1.09 | 94 | 1016.0 |
| 20260904021537 | 17 | 75 | 0.0 | 0.0 | 0.00 | 0.48 | 0.48 | 94 | 1016.6 |
| 20260904020032 | 17 | 72 | 0.0 | 0.0 | 0.00 | 0.48 | 0.48 | 94 | 1016.2 |
| 20260904014540 | 17 | 72 | 0.0 | 0.0 | 0.00 | 0.48 | 0.48 | 93 | 1016.3 |
| 20260904013037 | 17 | 71 | 0.0 | 0.0 | 0.00 | 0.48 | 0.48 | 93 | 1016.2 |
| 20260904011531 | 17 | 72 | 0.0 | 0.0 | 0.00 | 0.48 | 0.48 | 93 | 1016.1 |
| 20260904010030 | 17 | 345 | 0.0 | 0.0 | 0.00 | 0.48 | 0.48 | 93 | 1015.9 |
| 20260904004529 | 17 | 346 | 0.0 | 0.0 | 0.00 | 0.48 | 0.48 | 93 | 1016.0 |
| 20260904003029 | 17 | 346 | 0.0 | 0.0 | 0.00 | 0.48 | 0.48 | 93 | 1016.1 |
| 20260904001531 | 17 | 346 | 0.0 | 0.0 | 0.00 | 0.48 | 0.48 | 92 | 1015.7 |
| 20260904000028 | 17 | 346 | 0.0 | 0.0 | 0.00 | 0.48 | 0.48 | 92 | 1015.5 |
| 20260903234526 | 18 | 345 | 0.0 | 0.0 | 0.00 | 0.48 | 0.48 | 92 | 1015.4 |
| 20260903233025 | 18 | 346 | 0.0 | 0.0 | 0.00 | 0.48 | 0.48 | 91 | 1015.4 |
| 20260903231527 | 18 | 345 | 0.0 | 0.0 | 0.00 | 0.48 | 0.48 | 91 | 1015.5 |
| 20260903230027 | 19 | 346 | 0.0 | 0.0 | 0.00 | 0.48 | 0.48 | 90 | 1015.3 |
| 20260903224522 | 20 | 346 | 0.0 | 0.0 | 0.00 | 0.48 | 0.48 | 90 | 1015.6 |
| 20260903223025 | 20 | 346 | 0.0 | 0.0 | 0.00 | 0.48 | 0.48 | 89 | 1015.8 |
| 20260903221524 | 20 | 345 | 0.0 | 0.0 | 0.00 | 0.48 | 0.48 | 88 | 1015.7 |